Location: Newark
(46.7636°N, 1.8358°W)
Time: 21:50:38
(UTC+00:00)

Tiros 1 - Pass Details

Date: 27 October 2019
Orbit: 630 x 664 km, 48.4° (Epoch: 11 November)

Event Time Altitude Azimuth Distance (km) Brightness Sun altitude
Exits shadow 03:09:14 16° 99° (E) 1,689 9.8 -36.4°
Drops below altitude 10° 03:10:16 10° 100° (E) 2,081 10.3 -36.3°
Sets 03:12:37 0° 102° (ESE) 2,993 11.3 -35.9°
